Preview of NWS' New Version of Forecast
This preview is not operational and should not be used for support decisions.

Regional Weather Roundup (RWR)

Issued by National Weather Service (NWS)

                            
000
ASUS43 KDMX 171406
RWRIA 

WEATHER ROUNDUP FOR IOWA
NATIONAL WEATHER SERVICE DES MOINES IA
800 AM CST SUN FEB 17 2019

NOTE: "FAIR" INDICATES FEW OR NO CLOUDS BELOW 12,000 FEET WITH NO
SIGNIFICANT WEATHER AND/OR OBSTRUCTIONS TO VISIBILITY.

* - THESE STATIONS ARE NOT NWS STATIONS...THUS NOT UNDER NWS
QUALITY CONTROL.  THEY ALSO DO NOT REPORT WEATHER SUCH 
AS PRECIPITATION OR FOG.  

IAZ001>003-012>014-020>022-031>034-043>046-171500-
   NORTHWEST IOWA
  
CITY           SKY/WX    TMP DP  RH WIND       PRES   REMARKS
CARROLL *      LGT SNOW  21  21 100 N10       29.81R WCI  10          
CHEROKEE *     LGT SNOW  18  17  94 NE10      29.85R WCI   7          
DENISON *      LGT SNOW  19  18  93 NE10      29.82R VSB 1   WCI   8  
LE MARS *      LGT SNOW  18  16  93 N10       29.87R WCI   6          
ORANGE CITY *  LGT SNOW  18  16  93 NE7       29.85R WCI   8          
SHELDON *      LGT SNOW  16  16 100 NE16      29.85R WCI   0          
SIOUX CITY     LGT SNOW  18  15  88 N12       29.87R FOG     WCI   5  
SPENCER        LGT SNOW  18  14  84 NE15      29.87R VSB 3/4 WCI   4  
STORM LAKE *   LGT SNOW  18  18 100 NE14      29.82R WCI   4          
$$
 
IAZ055>058-069>071-079>083-090>094-171500-
   SOUTHWEST IOWA
  
CITY           SKY/WX    TMP DP  RH WIND       PRES   REMARKS
ATLANTIC *     MIX PCPN  23  23 100 N6        29.79R WCI  16          
AUDUBON *      LGT SNOW  21  19  93 CALM      29.79R                  
CLARINDA *     LGT SNOW  23  23 100 NW9       29.81R WCI  13          
COUNCIL BLFS * LGT SNOW  19  19 100 NW8       29.81R WCI   9          
CRESTON *      LGT SNOW  25  25 100 CALM      29.77R                  
HARLAN  *      LGT SNOW  21  19  93 N8        29.80R WCI  12          
LAMONI         LGT SNOW  26  24  92 NE5       29.75R FOG     WCI  20  
RED OAK *      LGT SNOW  23  23 100 NW9       29.80R WCI  13          
SHENANDOAH *   LGT SNOW  21  21 100 NW8       29.82R WCI  12          
$$
 
IAZ047>049-059>061-072>074-084-171500-
   CENTRAL IOWA
  
CITY           SKY/WX    TMP DP  RH WIND       PRES   REMARKS
AMES           LGT SNOW  23  21  92 NE7       29.82R VSB 3/4 WCI  15  
ANKENY *       LGT SNOW  23  23 100 VRB6      29.82R WCI  16          
BOONE *        LGT SNOW  23  23 100 NE10      29.80R WCI  12          
CHARITON *     MIX PCPN  25  25 100 E6        29.77R WCI  18          
DES MOINES     LGT SNOW  23  22  96 E6        29.80R VSB 1   WCI  16  
GRINNELL*      LGT SNOW  23  22  94 E7        29.81R WCI  15          
KNOXVILLE *    MIX PCPN  23  23 100 E6        29.79R WCI  16          
MARSHALLTOWN   SNOW      22  22 100 E9        29.82R VSB 1/2 WCI  12  
NEWTON *       LGT SNOW  23  23 100 E8        29.81R WCI  14          
PELLA *        LGT SNOW  24  22  91 E6        29.81R WCI  17          
PERRY *        LGT SNOW  24  24 100 NE9       29.80R WCI  14          
$$
 
IAZ004>006-015-016-023>025-035-036-171500-
   NORTH CENTRAL IOWA
  
CITY           SKY/WX    TMP DP  RH WIND       PRES   REMARKS
ALGONA *       LGT SNOW  19  19 100 NE12      29.85R VSB 1   WCI   7  
CLARION *      CLOUDY    19  18  93 NE16      29.84R FOG     WCI   5  
ESTHERVILLE    LGT SNOW  16  14  92 NE15      29.88R VSB 1   WCI   1  
FORT DODGE *   LGT SNOW  20  18  92 NE10      29.84R VSB 1   WCI   9  
MASON CITY     LGT SNOW  18  16  92 NE15      29.88R VSB 1   WCI   4  
FOREST CITY *  LGT SNOW  19  18  93 NE9       29.87R WCI   9          
IOWA FALLS *   LGT SNOW  21  19  92 NE10G17   29.84R VSB 1   WCI  10  
$$

IAZ007>011-017>019-026>030-037>042-050>054-066-171500-
   NORTHEAST IOWA
  
CITY           SKY/WX    TMP DP  RH WIND       PRES   REMARKS
CEDAR RAPIDS   SNOW      22  21  96 E12       29.81R VSB 1/4 WCI  10  
CHARLES CITY * LGT SNOW  19  16  86 NE14      29.87R WCI   6          
CLINTON *      CLOUDY    24  22  91 E15       29.83F WCI  11          
DECORAH *      LGT SNOW  19  19 100 NE10      29.87R WCI   8          
DUBUQUE        LGT SNOW  23  19  85 E12       29.83S FOG     WCI  12  
OELWEIN *      MOCLDY    19  19 100 NE14      29.85R FOG     WCI   6  
WATERLOO       SNOW      21  19  92 NE12      29.85R VSB 1/2 WCI   9  
$$
 
IAZ064-065-067-068-078-171500-
   EAST CENTRAL IOWA
  
CITY           SKY/WX    TMP DP  RH WIND       PRES   REMARKS
DAVENPORT      CLOUDY    24  19  81 E17       29.83S WCI  11          
IOWA CITY      SNOW      24  22  91 E6        29.84R VSB 1/2 WCI  17  
MT. PLEASANT * LGT SNOW  27  27 100 E10       29.80S WCI  17          
MUSCATINE *    LGT SNOW  25  23  93 E9        29.84R VSB 1   WCI  15  
QUAD CITIES    CLOUDY    26  21  81 E14       29.82R WCI  14          
$$
 
IAZ062-063-075>077-085>089-095>099-171500-
   SOUTHEAST IOWA
  
CITY           SKY/WX    TMP DP  RH WIND       PRES   REMARKS
BURLINGTON     LGT SNOW  25  21  85 E8        29.80R FOG     WCI  16  
FAIRFIELD *    CLOUDY    25  23  93 E12       29.79R FOG     WCI  14  
KEOKUK *       MIX PCPN  27  25  93 E14       29.78S WCI  15          
OSKALOOSA *    LGT SNOW  24  23  93 E10       29.80R WCI  14          
OTTUMWA        LGT SNOW  25  23  92 E9        29.79R FOG     WCI  15  
WASHINGTON *   LGT SNOW  25  25 100 E10       29.82R VSB 1   WCI  15  
$$

ABBREVIATIONS USED IN REMARKS
   TC - TEMPERATURES IN CELSIUS
  WCI - WIND CHILL INDEX
   HX - HEAT INDEX
  VSB - VISIBILITY  
$$